Regional Weather Roundup
Issued by NWS

Home | Current Version | Previous Version | Graphics & Text | Print | Product List | Glossary On
Versions: 1 2 3 4 5 6 7 8 9 10 11 12 13 14 15 16 17 18 19 20 21 22 23 24 25 26 27 28 29 30 31 32 33 34 35 36 37 38 39 40 41 42 43 44 45 46 47 48 49 50
000
ASUS43 KTOP 261059
RWRKS

WEATHER ROUNDUP FOR KANSAS
NATIONAL WEATHER SERVICE GOODLAND KS
600 AM CDT SAT MAY 26 2018

NOTE:  "FAIR" INDICATES FEW OR NO CLOUDS BELOW 12,000 FEET WITH NO
SIGNIFICANT WEATHER AND/OR OBSTRUCTIONS TO VISIBILITY.

KSZ001>006-013>018-027>032-041>047-261200-
NORTHWEST KANSAS

CITY           SKY/WX    TMP DP  RH WIND       PRES   REMARKS
GOODLAND       CLEAR     66  63  90 S13G24    29.90S
HILL CITY      CLEAR     64  61  90 CALM      29.85R
RUSSELL        CLEAR     64  64 100 SW10      29.83R
$$

KSZ061>065-074>080-084>089-261200-
SOUTHWEST KANSAS

CITY           SKY/WX    TMP DP  RH WIND       PRES   REMARKS
DODGE CITY     CLEAR     66  63  90 S10       29.88S
ELKHART        CLEAR     61  59  94 S8        29.92S
GARDEN CITY    CLEAR     64  62  93 S7        29.89R
GREAT BEND     CLEAR     66  64  93 SW7       29.85R
LIBERAL        CLEAR     61  61 100 S6        29.91R
$$

KSZ066>073-081>083-090>101-261200-
SOUTHEAST KANSAS

CITY           SKY/WX    TMP DP  RH WIND       PRES   REMARKS
CHANUTE        PTCLDY    68  66  93 SW3       29.84R
COFFEYVILLE    CLEAR     65  64  97 S3        29.83S
HUTCHINSON     CLEAR     64  62  93 CALM      29.83S
MEDICINE LODGE   N/A     66  64  93 CALM      29.84F
NEWTON         CLEAR     66  62  87 S10       29.84F
PARSONS        CLEAR     63  63 100 CALM      29.85S
WICHITA INTL   PTCLDY    66  63  90 SE3       29.84R
WICHITA JABRA  CLEAR     66  64  93 SW5       29.84S
WICHITA MCCONL CLEAR     67  62  84 SW3       29.84S
WINFIELD       CLEAR     66  65  96 SE3       29.86R
$$

KSZ007>012-019>026-033>040-048>060-102>105-261200-
NORTHEAST KANSAS

CITY           SKY/WX    TMP DP  RH WIND       PRES   REMARKS
CONCORDIA      CLEAR     68  65  90 SW7       29.81R
EMPORIA        CLEAR     67  62  84 SW7       29.82S
LAWRENCE       CLEAR     67  64  90 MISG      29.81R
MANHATTAN      CLEAR     66  63  90 SW5       29.81S
OLATHE IND     CLEAR     67  65  93 S7        29.83S
OLATHE EXE     CLEAR     65  65 100 S6        29.82S
SALINA         CLEAR     65  64  97 S6        29.83R
TOPEKA BILLARD CLEAR     69  66  90 SW3       29.80S
TOPEKA FORBES  CLEAR     67  65  93 CALM      29.82R
$$




USA.gov is the U.S. government's official web portal to all federal, state and local government web resources and services.